CAPE
34 2 2 3 3 0 0 0 0 0 0 0 0 0 0 0 0 0 0 0 0 0 0 0 0 0 0 0 0 0 0 0 0 0 0 0 0 0 0 0 0 0 0 0
80 17 2 3 4 0 0 0 0 0 0 0 0 0 0 0 0 0 0 0 0 0 0 0 0 0 0 0 0 0 0 0 0 0 0 0 0 0 0 0 0 0 0 0
109 62 9 2 5 1 0 0 0 0 0 0 0 0 0 0 0 0 0 0 0 0 0 0 0 0 0 0 0 0 0 0 0 0 0 0 0 0 0 0 0 0 0 0
91 97 22 2 4 1 0 0 0 0 0 0 0 0 1 0 0 0 0 0 0 0 0 0 0 0 0 0 0 0 0 0 0 0 0 0 0 0 0 0 0 0 0 0
56 50 19 2 4 3 0 0 0 0 1 0 0 4 0 0 0 0 0 0 0 0 0 0 0 0 0 0 0 0 0 0 0 0 0 0 0 0 0 0 0 0 0 0
63 62 35 2 2 0 0 1 0 0 1 0 0 0 1 0 0 0 0 0 0 0 0 0 0 0 0 0 0 0 0 0 0 0 0 0 0 0 0 0 0 0 0 0
81 99 53 1 3 0 0 0 0 0 0 0 0 0 0 0 0 0 0 0 0 0 0 0 0 0 0 0 0 0 0 0 0 0 0 0 0 0 0 0 0 0 0 0
78 96 80 1 2 0 0 0 0 0 0 0 0 0 0 0 0 0 0 0 0 0 0 0 0 0 0 0 0 0 0 0 0 0 0 0 0 0 0 0 0 0 0 0
102 130 125 1 4 0 0 1 0 0 0 0 0 0 0 0 0 0 0 0 0 0 0 0 0 0 0 0 0 0 0 0 0 0 0 0 0 0 0 0 0 0 0 0
1 0 5 4 3 0 0 0 2 0 0 0 0 0 0 0 0 0 0 0 0 0 0 0 0 0 0 0 0 0 0 0 0 0 0 0 0 0 0 0 0 0 0 0
7 11 10 7 4 0 0 1 0 0 0 0 0 0 0 0 0 0 0 0 0 0 0 0 0 0 0 0 0 0 0 0 0 0 0 0 0 0 0 0 0 0 0 0
7 6 5 5 6 3 0 0 0 0 0 0 0 0 0 0 0 0 0 0 0 0 0 0 0 0 0 0 0 0 0 0 0 0 0 0 0 0 0 0 0 0 0 0
10 10 8 3 1 0 0 0 0 0 0 0 0 0 0 0 0 0 0 0 0 0 0 0 0 0 0 0 0 0 0 0 0 0 0 0 0 0 0 0 0 0 0 0
0 0 0 0 0 0 0 0 0 0 0 0 0 0 0 0 0 0 0 0 0 0 0 0 0 0 0 0 0 0 0 0 0 0 0 0 0 0 0 0 0 0 0 0
1 0 0 0 0 0 0 0 0 0 0 0 0 0 0 0 0 0 0 0 0 0 0 0 0 0 0 0 0 0 0 0 0 0 0 0 0 0 0 0 0 0 0 0
0 0 0 0 0 0 0 0 0 0 0 0 0 0 0 0 0 0 0 0 0 0 0 0 0 0 0 0 0 0 0 0 0 0 0 0 0 0 0 0 0 0 0 0
0 0 0 0 0 0 0 0 0 0 0 0 0 0 0 0 0 0 0 0 0 0 0 0 0 0 0 0 0 0 0 0 0 0 0 0 0 0 0 0 0 0 0 0
0 0 0 0 0 0 0 0 0 0 0 0 0 0 0 0 0 0 0 0 0 0 0 0 0 0 0 0 0 0 0 0 0 0 0 0 0 0 0 0 0 0 0 0
0 0 0 0 0 0 0 0 0 0 0 0 0 0 0 0 0 0 0 0 0 0 0 0 0 0 0 0 0 0 0 0 0 0 0 0 0 0 0 0 0 0 0 0
0 0 0 0 0 0 0 0 0 0 0 0 0 0 0 0 0 0 0 0 0 0 0 0 0 0 0 0 0 0 0 0 0 0 0 0 0 0 0 0 0 0 0 0
0 0 0 0 0 0 0 0 0 0 0 0 0 0 0 0 0 0 0 0 0 0 0 0 0 0 0 0 0 0 0 0 0 0 0 0 0 0 0 0 0 0 0 0
0 0 0 0 0 0 0 0 0 0 0 0 0 0 0 0 0 0 0 0 0 0 0 0 0 0 0 0 0 0 0 0 0 0 0 0 0 0 0 0 0 0 0 0
0 0 0 0 0 0 0 0 0 0 0 0 0 0 0 0 0 0 0 0 0 0 0 0 0 0 0 0 0 0 0 0 0 0 0 0 0 0 0 0 0 0 0 0
0 0 0 0 0 0 0 0 0 0 0 0 0 0 0 0 0 0 0 0 0 0 0 0 0 0 0 0 0 0 0 0 0 0 0 0 0 0 0 0 0 0 0 0
0 0 0 0 0 0 0 0 0 0 0 0 0 0 0 0 0 0 0 0 0 0 0 0 0 0 0 0 0 0 0 0 0 0 0 0 0 0 0 0 0 0 0 0
0 0 0 0 0 0 0 0 0 0 0 0 0 0 0 0 0 0 0 0 0 0 0 0 0 0 0 0 0 0 0 0 0 0 0 0 0 0 0 0 0 0 0 0
0 0 0 0 0 0 0 0 0 0 0 0 0 0 0 0 0 0 0 0 0 0 0 0 0 0 0 0 0 0 0 0 0 0 0 0 0 0 0 0 0 0 0 0
CIN
-26 0 0 0 0 0 0 0 -16 0 0 0 0 0 0 0 0 0 0 0 0 0 0 0 0 0 0 0 0 0 0 0 0 0 0 0 0 0 0 0 0 0 0 0
-11 -30 0 0 0 0 0 0 0 0 0 0 0 0 0 0 0 0 0 0 0 0 0 0 0 0 0 0 0 0 0 0 0 0 0 0 0 0 0 0 0 0 0 0
-8 -21 -72 0 0 0 0 0 0 0 0 0 0 0 0 0 0 0 0 0 0 0 0 0 0 0 0 0 0 0 0 0 0 0 0 0 0 0 0 0 0 0 0 0
-13 -4 -26 0 0 0 0 0 0 0 0 0 0 0 0 0 0 0 0 0 0 0 0 0 0 0 0 0 0 0 0 0 0 0 0 0 0 0 0 0 0 0 0 0
-5 -8 -10 0 0 0 0 0 0 0 0 0 0 0 0 0 0 0 0 0 0 0 0 0 0 0 0 0 0 0 0 0 0 0 0 0 0 0 0 0 0 0 0 0
-7 -1 -32 0 0 0 0 0 0 0 0 0 0 0 0 0 0 0 0 0 0 0 0 0 0 0 0 0 0 0 0 0 0 0 0 0 0 0 0 0 0 0 0 0
-15 -12 -4 0 0 0 0 0 0 0 0 0 0 0 0 0 0 0 0 0 0 0 0 0 0 0 0 0 0 0 0 0 0 0 0 0 0 0 0 0 0 0 0 0
-20 -14 -2 0 0 0 0 0 0 0 0 0 0 0 0 0 0 0 0 0 0 0 0 0 0 0 0 0 0 0 0 0 0 0 0 0 0 0 0 0 0 0 0 0
-12 0 -1 0 0 0 0 0 0 0 0 0 0 0 0 0 0 0 0 0 0 0 0 0 0 0 0 0 0 0 0 0 0 0 0 0 0 0 0 0 0 0 0 0
0 0 0 0 0 0 0 0 0 0 0 0 0 0 0 0 0 0 0 0 0 0 0 0 0 0 0 0 0 0 0 0 0 0 0 0 0 0 0 0 0 0 0 0
0 0 0 0 0 0 0 0 0 0 0 0 0 0 0 0 0 0 0 0 0 0 0 0 0 0 0 0 0 0 0 0 0 0 0 0 0 0 0 0 0 0 0 0
0 0 0 0 0 0 0 0 0 0 0 0 0 0 0 0 0 0 0 0 0 0 0 0 0 0 0 0 0 0 0 0 0 0 0 0 0 0 0 0 0 0 0 0
0 0 0 0 0 0 0 0 0 0 0 0 0 0 0 0 0 0 0 0 0 0 0 0 0 0 0 0 0 0 0 0 0 0 0 0 0 0 0 0 0 0 0 0
0 0 0 0 0 0 0 0 0 0 0 0 0 0 0 0 0 0 0 0 0 0 0 0 0 0 0 0 0 0 0 0 0 0 0 0 0 0 0 0 0 0 0 0
-1 0 0 0 0 0 0 0 0 0 0 0 0 0 0 0 0 0 0 0 0 0 0 0 0 0 0 0 0 0 0 0 0 0 0 0 0 0 0 0 0 0 0 0
0 0 0 0 0 0 0 0 0 0 0 0 0 0 0 0 0 0 0 0 0 0 0 0 0 0 0 0 0 0 0 0 0 0 0 0 0 0 0 0 0 0 0 0
0 0 0 0 0 0 0 0 0 0 0 0 0 0 0 0 0 0 0 0 0 0 0 0 0 0 0 0 0 0 0 0 0 0 0 0 0 0 0 0 0 0 0 0
0 0 0 0 0 0 0 0 0 0 0 0 0 0 0 0 0 0 0 0 0 0 0 0 0 0 0 0 0 0 0 0 0 0 0 0 0 0 0 0 0 0 0 0
0 0 0 0 0 0 0 0 0 0 0 0 0 0 0 0 0 0 0 0 0 0 0 0 0 0 0 0 0 0 0 0 0 0 0 0 0 0 0 0 0 0 0 0
0 0 0 0 0 0 0 0 0 0 0 0 0 0 0 0 0 0 0 0 0 0 0 0 0 0 0 0 0 0 0 0 0 0 0 0 0 0 0 0 0 0 0 0
0 0 0 0 0 0 0 0 0 0 0 0 0 0 0 0 0 0 0 0 0 0 0 0 0 0 0 0 0 0 0 0 0 0 0 0 0 0 0 0 0 0 0 0
0 0 0 0 0 0 0 0 0 0 0 0 0 0 0 0 0 0 0 0 0 0 0 0 0 0 0 0 0 0 0 0 0 0 0 0 0 0 0 0 0 0 0 0
0 0 0 0 0 0 0 0 0 0 0 0 0 0 0 0 0 0 0 0 0 0 0 0 0 0 0 0 0 0 0 0 0 0 0 0 0 0 0 0 0 0 0 0
0 0 0 0 0 0 0 0 0 0 0 0 0 0 0 0 0 0 0 0 0 0 0 0 0 0 0 0 0 0 0 0 0 0 0 0 0 0 0 0 0 0 0 0
0 0 0 0 0 0 0 0 0 0 0 0 0 0 0 0 0 0 0 0 0 0 0 0 0 0 0 0 0 0 0 0 0 0 0 0 0 0 0 0 0 0 0 0
0 0 0 0 0 0 0 0 0 0 0 0 0 0 0 0 0 0 0 0 0 0 0 0 0 0 0 0 0 0 0 0 0 0 0 0 0 0 0 0 0 0 0 0
0 0 0 0 0 0 0 0 0 0 0 0 0 0 0 0 0 0 0 0 0 0 0 0 0 0 0 0 0 0 0 0 0 0 0 0 0 0 0 0 0 0 0 0
Wind_Speed
26 25 22 18 14 13 19 25 31 21 16 24 25 30 28 27 26 24 27 30 30 33 29 32 31 32 30 23 22 30 28 31 39 38 32 29 32 35 33 42 45 42 46 55
24 22 21 16 13 11 18 25 28 23 21 32 32 32 34 31 31 30 31 33 28 28 31 35 33 33 26 23 25 28 25 33 42 40 34 30 34 32 33 37 41 50 53 52
25 24 22 17 14 13 18 24 28 26 25 28 31 32 35 34 27 29 27 29 26 28 31 30 33 31 28 26 27 27 26 34 38 46 41 35 41 39 38 41 52 54 57 61
26 24 21 16 16 13 19 24 30 26 32 30 27 29 34 34 32 28 25 29 30 32 35 34 36 34 33 31 29 28 30 42 41 43 43 45 49 49 47 49 51 57 63 59
19 17 18 16 16 12 21 27 26 24 31 30 27 28 35 35 32 30 34 35 32 29 32 34 38 34 32 34 27 28 29 43 43 51 47 49 57 52 51 52 53 56 56 59
23 21 15 17 16 15 21 22 23 27 29 28 31 32 33 31 25 27 28 27 31 33 32 28 27 27 28 27 29 30 34 39 45 58 47 51 62 50 47 47 44 46 55 49
26 24 21 19 21 19 23 22 21 25 32 28 26 30 27 28 24 26 26 24 26 24 22 25 26 27 28 29 30 28 34 37 41 55 49 63 45 35 34 41 44 41 43 41
28 26 21 18 20 18 22 21 24 26 30 30 30 28 24 22 23 25 24 24 22 20 24 29 33 33 33 33 32 30 28 32 40 46 48 50 44 42 43 44 48 38 42 41
25 21 22 12 10 11 15 19 19 22 22 28 24 27 25 27 26 25 23 21 21 22 26 28 34 38 35 35 33 29 29 28 34 41 51 57 40 35 34 38 58 37 35 37
14 7 3 5 7 9 13 19 16 18 22 27 25 23 24 24 23 25 24 24 24 23 26 31 34 37 30 38 38 36 35 37 41 43 49 46 35 34 32 52 50 34 38 40
7 6 4 2 5 8 13 18 17 14 19 23 21 21 24 23 23 25 21 23 25 25 28 29 32 33 32 34 33 35 37 40 42 41 48 55 29 32 43 41 38 39 38 38
11 11 10 9 7 6 8 12 12 11 15 12 17 21 23 20 20 18 21 22 23 24 26 27 28 33 33 35 42 30 40 35 40 37 40 32 32 36 35 35 38 37 35 35
17 15 14 12 10 11 9 9 9 12 11 17 19 23 25 24 23 20 21 22 21 22 21 25 27 32 31 37 36 35 32 29 36 39 33 34 34 33 30 30 32 32 32 33
19 19 18 17 16 15 13 12 13 13 13 17 20 21 23 26 24 23 20 18 19 20 22 25 26 30 27 31 30 33 31 29 33 34 34 34 31 28 28 29 30 32 31 32
20 20 19 19 18 18 18 19 20 16 16 16 14 19 25 25 26 24 23 21 20 22 24 25 27 24 25 26 27 28 21 26 30 35 32 31 30 29 28 27 27 26 26 28
23 22 20 16 15 14 15 18 23 22 15 16 21 17 25 25 24 25 25 23 22 20 22 22 21 20 22 24 27 22 19 22 22 30 28 26 26 28 27 27 27 28 28 27
21 21 21 21 22 21 20 19 19 19 17 18 18 21 22 25 23 23 23 23 21 19 20 20 20 20 21 21 26 22 22 23 26 24 28 32 31 32 31 30 31 31 31 31
22 22 22 22 22 21 25 28 22 19 18 19 21 21 22 27 25 22 23 21 20 22 19 19 21 21 20 23 24 22 23 25 26 24 20 20 20 22 24 23 26 27 29 31
21 21 21 21 23 21 21 22 28 28 20 19 20 22 23 24 24 21 20 20 20 20 22 21 22 21 22 24 26 28 23 21 19 19 19 20 20 21 22 23 24 24 26 27
18 18 19 20 20 21 20 21 22 25 26 24 22 22 22 22 23 22 20 21 21 22 22 23 20 21 14 8 10 12 15 16 17 20 21 22 22 23 23 24 24 24 25 26
18 18 17 18 20 20 21 21 23 24 22 24 23 24 22 23 22 22 22 21 21 22 23 25 22 23 21 19 18 15 16 17 17 17 19 21 22 24 26 26 26 26 26 26
20 21 21 22 23 23 22 22 22 23 22 24 24 23 23 22 19 22 22 22 22 22 18 21 23 21 18 18 20 21 22 22 22 22 23 24 25 26 28 29 29 28 27 27
21 21 21 23 21 25 25 25 25 25 26 22 9 19 14 14 15 16 18 21 21 15 21 22 18 22 25 28 30 29 30 28 27 27 27 28 28 29 29 31 30 29 30 28
21 25 22 24 26 28 29 30 27 18 15 10 11 16 16 15 17 18 19 19 20 24 25 25 27 29 29 31 31 33 34 33 32 32 32 33 33 33 32 31 31 31 32 30
30 29 32 33 26 24 21 19 17 17 14 14 16 17 21 22 21 23 20 23 24 22 25 23 24 25 26 27 30 32 34 35 36 36 36 36 36 36 36 34 33 32 31 30
26 25 32 27 26 24 24 22 21 17 16 17 20 21 22 25 24 25 24 26 24 25 24 22 24 26 27 28 30 32 33 35 37 38 39 39 38 39 38 36 34 32 30 29
28 29 26 30 28 26 24 22 19 16 20 24 23 28 26 19 22 24 22 23 19 20 22 23 25 27 29 30 32 34 37 39 41 41 43 42 41 39 39 38 35 33 30 28
Wind_Direction
280 279 277 276 272 296 303 303 299 309 316 304 302 298 305 309 307 309 306 306 303 302 303 302 299 300 302 307 306 301 301 302 297 298 304 303 300 297 295 294 299 297 297 296
277 277 274 265 257 272 301 296 299 305 302 292 293 298 299 301 300 299 303 300 300 305 300 300 300 302 309 304 303 304 303 301 300 303 304 305 300 299 299 299 297 291 295 299
276 274 271 257 243 265 299 299 298 304 295 298 297 296 298 297 305 303 303 304 301 300 296 299 302 302 305 304 303 305 303 296 293 294 301 304 300 299 298 294 293 295 288 294
277 274 270 244 234 252 289 292 293 296 294 293 290 297 301 297 298 300 301 302 295 298 296 295 293 296 299 301 301 299 296 295 296 296 299 299 298 297 296 293 293 291 296 295
270 255 260 236 224 235 283 287 294 299 299 300 292 290 294 290 294 297 297 294 298 296 294 295 300 299 298 299 299 297 298 297 299 297 300 299 297 297 296 295 295 294 296 297
280 277 264 238 212 240 290 292 296 297 298 294 296 293 297 299 302 305 306 304 298 295 300 307 305 306 305 305 305 298 298 301 302 298 303 304 299 302 299 301 303 303 300 304
279 276 269 252 221 235 287 287 298 296 297 298 296 300 299 299 300 299 310 312 304 310 317 315 312 309 305 302 300 301 301 301 302 300 305 298 308 316 315 310 308 309 308 310
281 279 271 244 220 255 278 293 293 297 298 301 303 304 303 309 312 307 309 316 316 319 318 314 311 309 308 309 309 304 304 303 303 302 301 304 306 309 311 312 309 311 310 311
284 280 281 240 240 254 287 303 302 305 300 303 310 305 308 302 306 308 314 323 324 321 313 310 306 306 310 309 311 317 314 311 302 305 303 304 311 317 319 317 306 316 317 316
298 283 227 239 249 276 287 300 311 309 305 315 312 310 308 310 311 309 311 314 317 320 312 308 307 306 312 308 308 310 310 309 302 302 302 305 313 319 322 310 313 321 318 317
32 33 41 27 304 292 297 312 316 313 307 328 336 325 315 315 315 308 315 318 317 316 312 312 313 311 313 312 313 312 311 310 309 310 306 306 320 320 313 316 317 317 317 317
52 50 44 40 29 8 353 328 353 13 332 336 357 355 347 339 332 326 323 320 322 322 317 319 318 314 316 314 309 318 310 313 312 311 310 318 317 316 318 319 318 319 319 320
60 55 44 36 23 14 42 38 29 1 3 347 342 335 346 348 343 337 323 326 328 327 330 322 320 315 319 313 314 317 319 322 315 317 321 320 321 321 321 325 323 323 321 320
59 58 56 53 49 43 31 7 348 349 347 326 334 352 350 351 353 352 350 344 342 336 334 326 324 320 328 321 322 320 323 328 324 322 324 327 328 331 329 327 326 323 321 320
58 56 55 56 53 48 37 21 3 354 337 325 335 347 347 352 355 354 355 348 343 338 332 331 327 333 332 334 333 329 342 337 334 329 333 330 329 332 332 327 324 320 320 320
61 58 51 29 11 3 354 347 359 3 12 342 324 344 345 349 357 355 354 351 350 348 342 341 345 350 346 339 336 349 352 348 343 336 339 332 328 329 327 323 323 323 322 320
49 45 38 31 25 11 349 341 343 351 359 344 334 332 348 347 351 353 354 1 1 1 356 355 356 357 356 350 343 350 350 348 346 340 338 334 334 331 331 326 323 322 320 318
47 42 37 33 33 29 15 9 7 11 10 356 338 336 342 354 346 346 2 358 8 8 7 5 1 359 2 353 354 352 351 351 350 349 344 329 319 323 324 324 327 324 322 322
45 40 35 26 15 12 13 17 23 25 12 350 351 340 338 358 358 2 7 10 4 12 7 5 4 4 1 1 2 1 2 359 350 347 344 340 336 329 330 333 331 328 325 326
20 10 6 360 8 8 15 12 4 8 15 21 10 8 359 9 8 8 9 10 8 7 11 12 15 13 29 27 12 1 355 349 344 342 340 343 339 338 336 334 332 329 326 325
6 2 14 26 14 18 12 4 6 6 12 17 18 19 14 18 12 14 22 19 18 13 19 14 19 18 24 19 10 358 347 343 338 333 329 330 332 333 335 335 335 333 330 327
43 56 47 30 16 18 21 15 24 22 25 17 20 24 36 46 75 50 55 42 46 26 46 30 21 22 14 5 354 349 349 347 343 342 338 336 334 334 334 335 335 335 334 333
38 31 33 21 12 25 32 29 33 39 41 73 117 101 118 118 109 102 81 58 44 52 33 23 23 8 359 354 351 349 349 346 344 341 340 339 337 337 337 336 336 336 337 337
42 46 29 38 43 49 57 70 97 125 125 124 118 107 105 101 89 79 61 52 43 30 20 15 5 357 351 349 348 348 346 346 343 342 341 340 339 338 338 337 337 338 338 338
66 58 58 61 120 120 120 120 118 114 115 108 106 97 81 71 67 56 55 41 31 31 15 359 352 335 336 341 346 347 346 345 344 343 341 340 339 338 338 339 339 338 339 340
120 116 118 120 114 109 107 103 100 104 103 103 90 78 70 61 55 46 44 32 29 16 4 336 334 335 338 340 344 345 345 345 344 343 341 340 340 339 339 339 340 340 341 340
116 112 112 111 108 104 101 99 95 99 93 83 82 68 66 70 56 47 45 33 9 340 336 340 339 338 339 342 344 347 347 346 345 344 344 343 342 342 342 341 341 342 341 341